DW7027 Weather Reports


Display with metric or nautical units.
time (UTC)temp
F
wind
direction
speed
MPH
gust
MPH
rain 1hr
in
rain 24hr
in
rain mn
in
humidity
%
barometer
mb
20260508052204 52 3 2.0 3.0 0.00 0.00 0.00 82 1021.4
20260508051704 51 0 3.0 5.0 0.00 0.00 0.00 82 1021.3
20260508051204 51 2 2.0 6.0 0.00 0.00 0.00 82 1021.4
20260508050704 53 291 3.0 7.0 0.00 0.00 0.00 80 1020.3
20260508005204 55 285 3.0 5.0 0.00 0.00 0.00 78 1019.6
20260508004704 55 285 2.0 5.0 0.00 0.00 0.00 78 1019.5
20260508004204 55 292 2.0 6.0 0.00 0.00 0.00 78 1019.5
20260508003704 56 348 3.0 6.0 0.00 0.00 0.00 78 1019.5
20260508003204 56 275 2.0 3.0 0.00 0.00 0.00 78 1019.5
20260508002705 56 289 2.0 5.0 0.00 0.00 0.00 78 1019.4
20260508002204 56 359 3.0 6.0 0.00 0.00 0.00 78 1019.4
20260508001705 56 356 2.0 3.0 0.00 0.00 0.00 78 1019.6
20260508001204 56 325 2.0 5.0 0.00 0.00 0.00 78 1019.4
20260508000704 56 331 2.0 5.0 0.00 0.00 0.00 78 1019.4
20260507235706 57 6 3.0 8.0 0.00 0.00 0.00 78 1019.4
20260507235204 57 347 4.0 8.0 0.00 0.00 0.00 78 1019.3
20260507234705 57 356 4.0 8.0 0.00 0.00 0.00 77 1019.3
20260507234205 57 337 4.0 8.0 0.00 0.00 0.00 76 1019.2
20260507233705 57 341 5.0 12.0 0.00 0.00 0.00 76 1019.2
20260507233204 57 341 6.0 12.0 0.00 0.00 0.00 75 1019.1
20260507232704 57 353 4.0 12.0 0.00 0.00 0.00 73 1019.2
20260507232204 57 311 3.0 12.0 0.00 0.00 0.00 73 1019.2
20260507231704 57 287 5.0 10.0 0.00 0.00 0.00 73 1019.2
20260507231204 57 289 6.0 12.0 0.00 0.00 0.00 72 1019.1
20260507225704 57 288 5.0 10.0 0.00 0.00 0.00 72 1018.9
20260507224705 57 281 5.0 10.0 0.00 0.00 0.00 72 1018.9
20260507223704 57 299 3.0 6.0 0.00 0.00 0.00 71 1018.9
20260507223205 58 291 3.0 5.0 0.00 0.00 0.00 70 1018.8
20260507222704 58 269 3.0 5.0 0.00 0.00 0.00 70 1018.8
20260507222205 58 314 2.0 3.0 0.00 0.00 0.00 70 1018.8
20260507221704 58 280 1.0 3.0 0.00 0.00 0.00 70 1018.8
20260507221204 58 303 2.0 2.0 0.00 0.00 0.00 70 1018.7
20260507220704 58 290 2.0 5.0 0.00 0.00 0.00 70 1018.6
20260507220207 58 274 3.0 5.0 0.00 0.00 0.00 70 1018.6
20260507215704 58 270 2.0 3.0 0.00 0.00 0.00 71 1018.6
20260507215204 58 260 2.0 5.0 0.00 0.00 0.00 71 1018.4
20260507213704 58 246 2.0 5.0 0.00 0.00 0.00 73 1018.4
20260507213205 58 257 2.0 5.0 0.00 0.00 0.00 73 1018.5
20260507212705 58 252 1.0 3.0 0.00 0.00 0.00 73 1018.4
20260507211704 58 235 2.0 3.0 0.00 0.00 0.00 73 1018.4
20260507210704 58 197 3.0 6.0 0.00 0.00 0.00 73 1018.4
20260507205204 59 198 3.0 9.0 0.00 0.00 0.00 73 1018.4
20260507204704 59 208 4.0 7.0 0.00 0.00 0.00 72 1018.3
20260507204204 59 203 4.0 8.0 0.00 0.00 0.00 72 1018.3
20260507203205 59 186 3.0 6.0 0.00 0.00 0.00 70 1018.3
20260507202704 59 178 2.0 5.0 0.00 0.00 0.00 70 1018.5
20260507202204 59 202 3.0 3.0 0.00 0.00 0.00 69 1018.4
20260507201205 59 158 1.0 3.0 0.00 0.00 0.00 68 1018.4
20260507200704 59 99 2.0 3.0 0.00 0.00 0.00 68 1018.4
20260507200205 59 44 1.0 2.0 0.00 0.00 0.00 68 1018.3
20260507195704 59 80 2.0 2.0 0.00 0.00 0.00 67 1018.3
20260507195204 59 110 2.0 3.0 0.00 0.00 0.00 67 1018.0
20260507194704 59 64 1.0 2.0 0.00 0.00 0.00 66 1018.1
20260507194205 59 357 1.0 3.0 0.00 0.00 0.00 66 1018.0
20260507193704 59 339 1.0 2.0 0.00 0.00 0.00 66 1017.9
20260507192704 60 263 2.0 3.0 0.00 0.00 0.00 65 1017.8
20260507192204 60 266 2.0 6.0 0.00 0.00 0.00 65 1018.1
20260507191704 60 241 2.0 5.0 0.00 0.00 0.00 65 1017.9
20260507190705 60 269 2.0 5.0 0.00 0.00 0.00 65 1017.6
20260507190204 60 277 3.0 6.0 0.00 0.00 0.00 65 1017.6
20260507185704 61 258 2.0 5.0 0.00 0.00 0.00 65 1017.5
20260507184704 61 246 3.0 5.0 0.00 0.00 0.00 65 1017.3
20260507184205 61 261 2.0 6.0 0.00 0.00 0.00 65 1017.3
20260507183704 61 277 4.0 6.0 0.00 0.00 0.00 65 1017.4
20260507182704 62 273 3.0 6.0 0.00 0.00 0.00 64 1017.3
20260507182204 62 269 3.0 6.0 0.00 0.00 0.00 64 1017.3
20260507181704 62 275 3.0 6.0 0.00 0.00 0.00 63 1017.3
20260507181205 62 282 4.0 7.0 0.00 0.00 0.00 62 1017.3
20260507180704 63 275 3.0 7.0 0.00 0.00 0.00 61 1017.2
20260507180204 63 268 3.0 7.0 0.00 0.00 0.00 59 1017.1
20260507175704 64 277 4.0 8.0 0.00 0.00 0.00 58 1017.1
20260507175205 64 232 6.0 13.0 0.00 0.00 0.00 58 1017.0
20260507174705 64 249 7.0 15.0 0.00 0.00 0.00 57 1016.9
20260507174206 63 249 6.0 10.0 0.00 0.00 0.00 58 1017.0
20260507173705 64 213 4.0 5.0 0.00 0.00 0.00 57 1016.7
20260507172705 64 257 2.0 5.0 0.00 0.00 0.00 56 1016.5
20260507171705 64 56 2.0 5.0 0.00 0.00 0.00 55 1016.5
20260507171204 64 79 1.0 5.0 0.00 0.00 0.00 55 1016.4
20260507170704 65 257 2.0 3.0 0.00 0.00 0.00 54 1016.5
20260507170204 65 344 3.0 6.0 0.00 0.00 0.00 53 1016.4
20260507165704 65 60 4.0 10.0 0.00 0.00 0.00 53 1016.0
20260507165204 66 14 6.0 12.0 0.00 0.00 0.00 52 1015.9
20260507164705 66 1 4.0 8.0 0.00 0.00 0.00 51 1016.0
20260507164204 67 350 5.0 8.0 0.00 0.00 0.00 50 1016.1
20260507163707 68 356 4.0 9.0 0.00 0.00 0.00 48 1016.0
20260507163205 69 3 6.0 10.0 0.00 0.00 0.00 46 1015.9
20260507162704 69 288 3.0 8.0 0.00 0.00 0.00 44 1015.7
20260507161704 69 225 3.0 6.0 0.00 0.00 0.00 44 1015.6
20260507161204 69 227 3.0 9.0 0.00 0.00 0.00 44 1015.5
20260507160704 69 194 5.0 8.0 0.00 0.00 0.00 44 1015.6
20260507160205 70 180 6.0 10.0 0.00 0.00 0.00 44 1015.4
20260507155704 70 171 3.0 10.0 0.00 0.00 0.00 44 1015.7
20260507154706 70 242 3.0 9.0 0.00 0.00 0.00 43 1015.5
20260507153205 71 203 6.0 13.0 0.00 0.00 0.00 43 1015.5
20260507152704 72 181 5.0 10.0 0.00 0.00 0.00 42 1015.7
20260507152205 72 202 6.0 12.0 0.00 0.00 0.00 42 1015.7
20260507151705 72 246 6.0 12.0 0.00 0.00 0.00 42 1015.6
20260507151205 71 206 2.0 6.0 0.00 0.00 0.00 43 1015.6
20260507150205 72 226 6.0 12.0 0.00 0.00 0.00 42 1015.7
20260507145705 72 191 5.0 9.0 0.00 0.00 0.00 43 1015.8
20260507145206 72 200 7.0 12.0 0.00 0.00 0.00 43 1015.7
20260507144705 73 202 6.0 13.0 0.00 0.00 0.00 43 1015.6
20260507144205 72 222 5.0 9.0 0.00 0.00 0.00 44 1015.9
20260507143205 72 176 5.0 8.0 0.00 0.00 0.00 44 1015.7
20260507142205 71 198 4.0 8.0 0.00 0.00 0.00 46 1015.8
20260507140204 71 204 6.0 12.0 0.00 0.00 0.00 46 1016.0
20260507135705 71 205 6.0 10.0 0.00 0.00 0.00 45 1016.0
20260507135204 71 204 5.0 9.0 0.00 0.00 0.00 46 1016.0
20260507134705 71 221 4.0 10.0 0.00 0.00 0.00 45 1016.0
20260507134205 72 198 8.0 12.0 0.00 0.00 0.00 44 1016.0
20260507133705 72 282 3.0 8.0 0.00 0.00 0.00 45 1015.9
20260507133205 72 246 4.0 7.0 0.00 0.00 0.00 45 1016.0
20260507132705 72 37 5.0 7.0 0.00 0.00 0.00 45 1015.9
20260507132205 73 197 4.0 8.0 0.00 0.00 0.00 44 1016.0
20260507131705 73 215 6.0 9.0 0.00 0.00 0.00 43 1016.1
20260507131205 73 254 5.0 9.0 0.00 0.00 0.00 44 1016.2
20260507130705 73 350 4.0 7.0 0.00 0.00 0.00 45 1016.1
20260507130204 73 278 5.0 8.0 0.00 0.00 0.00 45 1016.1
20260507125705 72 7 3.0 6.0 0.00 0.00 0.00 45 1016.3
20260507125206 72 256 4.0 12.0 0.00 0.00 0.00 46 1016.4
20260507124705 72 205 5.0 9.0 0.00 0.00 0.00 45 1016.4
20260507124205 72 206 6.0 12.0 0.00 0.00 0.00 45 1016.5
20260507123704 72 249 9.0 14.0 0.00 0.00 0.00 46 1016.4
20260507123205 72 248 5.0 8.0 0.00 0.00 0.00 46 1016.5
20260507122205 71 274 4.0 12.0 0.00 0.00 0.00 46 1016.5
20260507121205 71 270 4.0 10.0 0.00 0.00 0.00 46 1016.6
20260507120705 71 246 5.0 13.0 0.00 0.00 0.00 46 1016.7
20260507120204 71 233 7.0 13.0 0.00 0.00 0.00 47 1016.8
20260507115706 71 237 7.0 12.0 0.00 0.00 0.00 47 1016.9
20260507114204 71 250 5.0 14.0 0.00 0.00 0.00 48 1016.8
20260507113705 70 288 3.0 10.0 0.00 0.00 0.00 49 1017.0
20260507113205 70 242 7.0 14.0 0.00 0.00 0.00 49 1016.9
20260507112705 70 204 4.0 13.0 0.00 0.00 0.00 48 1017.0
20260507112205 70 243 3.0 9.0 0.00 0.00 0.00 49 1016.9
20260507111705 70 284 7.0 14.0 0.00 0.00 0.00 49 1017.1
20260507111205 70 278 5.0 14.0 0.00 0.00 0.00 49 1017.2
20260507110705 70 274 7.0 12.0 0.00 0.00 0.00 50 1017.2
20260507105705 69 284 3.0 13.0 0.00 0.00 0.00 50 1017.3
20260507105205 69 244 6.0 12.0 0.00 0.00 0.00 49 1017.3
20260507104704 68 247 6.0 12.0 0.00 0.00 0.00 49 1017.4
20260507104205 68 246 6.0 13.0 0.00 0.00 0.00 49 1017.3
20260507103705 68 240 4.0 10.0 0.00 0.00 0.00 52 1017.1
20260507103205 68 238 6.0 12.0 0.00 0.00 0.00 53 1017.3
20260507102705 67 248 3.0 10.0 0.00 0.00 0.00 52 1017.5
20260507102204 67 252 5.0 12.0 0.00 0.00 0.00 54 1017.3
20260507101705 67 277 5.0 9.0 0.00 0.00 0.00 55 1017.3
20260507100705 67 254 5.0 15.0 0.00 0.00 0.00 54 1017.1
20260507100205 67 245 9.0 14.0 0.00 0.00 0.00 56 1017.1
20260507095206 66 217 7.0 12.0 0.00 0.00 0.00 56 1017.1
20260507094704 66 237 6.0 10.0 0.00 0.00 0.00 56 1017.3
20260507093204 66 196 6.0 9.0 0.00 0.00 0.00 57 1017.0
20260507092705 67 251 5.0 9.0 0.00 0.00 0.00 56 1017.1
20260507091705 67 255 6.0 10.0 0.00 0.00 0.00 58 1016.9
20260507090705 65 256 7.0 12.0 0.00 0.00 0.00 59 1017.0
20260507090205 65 287 6.0 12.0 0.00 0.00 0.00 60 1017.0
20260507085705 65 286 6.0 15.0 0.00 0.00 0.00 60 1017.0
20260507085205 65 264 5.0 13.0 0.00 0.00 0.00 60 1017.2
20260507084705 64 265 6.0 13.0 0.00 0.00 0.00 60 1016.9
20260507083705 64 269 5.0 10.0 0.00 0.00 0.00 60 1016.9
20260507083205 65 272 4.0 8.0 0.00 0.00 0.00 60 1016.6
20260507082704 65 302 5.0 12.0 0.00 0.00 0.00 60 1016.8
20260507082204 65 283 6.0 12.0 0.00 0.00 0.00 60 1016.4
20260507081705 65 262 6.0 12.0 0.00 0.00 0.00 60 1016.4
20260507081204 65 278 9.0 16.0 0.00 0.00 0.00 60 1016.3
20260507080704 65 288 5.0 12.0 0.00 0.00 0.00 61 1016.3
20260507080205 65 285 6.0 10.0 0.00 0.00 0.00 61 1016.4
20260507074705 64 280 7.0 13.0 0.00 0.00 0.00 63 1016.3
20260507074205 63 266 7.0 13.0 0.00 0.00 0.00 62 1016.2
20260507073705 63 270 6.0 13.0 0.00 0.00 0.00 63 1015.9
20260507073204 63 286 8.0 14.0 0.00 0.00 0.00 63 1016.4
20260507072705 63 280 6.0 14.0 0.00 0.00 0.00 63 1016.3
20260507072204 63 256 6.0 13.0 0.00 0.00 0.00 63 1016.4
20260507071704 63 280 10.0 18.0 0.00 0.00 0.00 63 1015.9
20260507071205 64 269 8.0 15.0 0.00 0.00 0.00 63 1016.0
20260507065705 63 269 10.0 16.0 0.00 0.00 0.00 64 1016.0
20260507065206 63 273 9.0 16.0 0.00 0.00 0.00 64 1016.0
20260507064705 63 277 9.0 17.0 0.00 0.00 0.00 64 1015.9
20260507064205 63 285 10.0 17.0 0.00 0.00 0.00 64 1015.9
20260507063705 63 279 11.0 20.0 0.00 0.00 0.00 65 1016.1
20260507062205 62 290 10.0 15.0 0.00 0.00 0.00 68 1016.0
20260507061704 62 282 8.0 18.0 0.00 0.00 0.00 68 1015.8
20260507061205 61 291 6.0 14.0 0.00 0.00 0.00 69 1015.8
20260507060705 61 278 7.0 13.0 0.00 0.00 0.00 70 1015.6
20260507060204 61 286 5.0 10.0 0.00 0.00 0.00 70 1015.9
20260507055705 61 266 5.0 10.0 0.00 0.00 0.00 70 1015.9
20260507054704 60 272 6.0 13.0 0.00 0.00 0.00 71 1015.7
20260507054204 60 284 5.0 12.0 0.00 0.00 0.00 72 1015.6
20260507053705 60 284 7.0 13.0 0.00 0.00 0.00 72 1015.4
20260507053205 59 277 7.0 10.0 0.00 0.00 0.00 73 1015.2
20260507052704 59 279 5.0 10.0 0.00 0.00 0.00 73 1015.2